Location: Karcze
(52.0945°N, 22.4786°E)
Time: 18:03:36
(UTC+00:00)

SHAONIAN XING - Pass Details

Date: 30 November 2021
Orbit: 466 x 487 km, 97.5° (Epoch: 27 January)

Event Time Altitude Azimuth Distance (km) Brightness Sun altitude
Rises 15:08:16 0° 356° (N) 2,550 ? -6.8°
Reaches altitude 10° 15:11:36 10° 322° (NW) 1,671 ? -7.3°
Maximum altitude 15:12:46 11° 303° (WNW) 1,588 ? -7.5°
Drops below altitude 10° 15:13:56 10° 284° (WNW) 1,672 ? -7.6°
Sets 15:17:17 0° 249° (WSW) 2,553 ? -8.1°
